Year,Month,Day,Hour,Minute,Value (Times are PST for temperature in C)
2011,07,04,00,00,12.00
2011,07,04,00,01,11.90
2011,07,04,00,02,11.90
2011,07,04,00,03,11.90
2011,07,04,00,04,11.80
2011,07,04,00,05,11.80
2011,07,04,00,06,11.80
2011,07,04,00,07,11.80
2011,07,04,00,08,11.80
2011,07,04,00,09,11.70
2011,07,04,00,10,11.70
2011,07,04,00,11,11.70
2011,07,04,00,12,11.60
2011,07,04,00,13,11.60
2011,07,04,00,14,11.60
2011,07,04,00,15,11.60
2011,07,04,00,16,11.60
2011,07,04,00,17,11.60
2011,07,04,00,18,11.60
2011,07,04,00,19,11.60
2011,07,04,00,20,11.60
2011,07,04,00,21,11.60
2011,07,04,00,22,11.60
2011,07,04,00,23,11.60
2011,07,04,00,24,11.60
2011,07,04,00,25,11.60
2011,07,04,00,26,11.60
2011,07,04,00,27,11.60
2011,07,04,00,28,11.60
2011,07,04,00,29,11.60
2011,07,04,00,30,11.60
2011,07,04,00,31,11.60
2011,07,04,00,32,11.60
2011,07,04,00,33,11.60
2011,07,04,00,34,11.60
2011,07,04,00,35,11.60
2011,07,04,00,36,11.60
2011,07,04,00,37,11.60
2011,07,04,00,38,11.60
2011,07,04,00,39,11.60
2011,07,04,00,40,11.50
2011,07,04,00,41,11.40
2011,07,04,00,42,11.40
2011,07,04,00,43,11.40
2011,07,04,00,44,11.40
2011,07,04,00,45,11.40
2011,07,04,00,46,11.40
2011,07,04,00,47,11.40
2011,07,04,00,48,11.40
2011,07,04,00,49,11.30
2011,07,04,00,50,11.30
2011,07,04,00,51,11.20
2011,07,04,00,52,11.20
2011,07,04,00,53,11.10
2011,07,04,00,54,11.10
2011,07,04,00,55,11.10
2011,07,04,00,56,11.10
2011,07,04,00,57,11.10
2011,07,04,00,58,11.10
2011,07,04,00,59,11.00
2011,07,04,01,00,11.00
2011,07,04,01,01,11.10
2011,07,04,01,02,11.10
2011,07,04,01,03,11.10
2011,07,04,01,04,11.00
2011,07,04,01,05,10.90
2011,07,04,01,06,10.90
2011,07,04,01,07,10.90
2011,07,04,01,08,10.90
2011,07,04,01,09,10.90
2011,07,04,01,10,10.90
2011,07,04,01,11,10.90
2011,07,04,01,12,10.90
2011,07,04,01,13,10.90
2011,07,04,01,14,10.90
2011,07,04,01,15,10.90
2011,07,04,01,16,10.80
2011,07,04,01,17,10.80
2011,07,04,01,18,10.80
2011,07,04,01,19,10.80
2011,07,04,01,20,10.80
2011,07,04,01,21,10.70
2011,07,04,01,22,10.70
2011,07,04,01,23,10.70
2011,07,04,01,24,10.70
2011,07,04,01,25,10.60
2011,07,04,01,26,10.60
2011,07,04,01,27,10.60
2011,07,04,01,28,10.60
2011,07,04,01,29,10.60
2011,07,04,01,30,10.60
2011,07,04,01,31,10.50
2011,07,04,01,32,10.40
2011,07,04,01,33,10.40
2011,07,04,01,34,10.40
2011,07,04,01,35,10.40
2011,07,04,01,36,10.40
2011,07,04,01,37,10.40
2011,07,04,01,38,10.40
2011,07,04,01,39,10.40
2011,07,04,01,40,10.40
2011,07,04,01,41,10.40
2011,07,04,01,42,10.40
2011,07,04,01,43,10.40
2011,07,04,01,44,10.40
2011,07,04,01,45,10.40
2011,07,04,01,46,10.40
2011,07,04,01,47,10.40
2011,07,04,01,48,10.40
2011,07,04,01,49,10.40
2011,07,04,01,50,10.40
2011,07,04,01,51,10.40
2011,07,04,01,52,10.40
2011,07,04,01,53,10.40
2011,07,04,01,54,10.40
2011,07,04,01,55,10.40
2011,07,04,01,56,10.40
2011,07,04,01,57,10.40
2011,07,04,01,58,10.40
2011,07,04,01,59,10.30
2011,07,04,02,00,10.30
2011,07,04,02,01,10.30
2011,07,04,02,02,10.30
2011,07,04,02,03,10.30
2011,07,04,02,04,10.30
2011,07,04,02,05,10.30
2011,07,04,02,06,10.20
2011,07,04,02,07,10.20
2011,07,04,02,08,10.20
2011,07,04,02,09,10.20
2011,07,04,02,10,10.20
2011,07,04,02,11,10.20
2011,07,04,02,12,10.20
2011,07,04,02,13,10.10
2011,07,04,02,14,10.10
2011,07,04,02,15,10.10
2011,07,04,02,16,10.10
2011,07,04,02,17,10.10
2011,07,04,02,18,10.10
2011,07,04,02,19,10.10
2011,07,04,02,20,10.10
2011,07,04,02,21,10.00
2011,07,04,02,22,9.90
2011,07,04,02,23,9.90
2011,07,04,02,24,9.90
2011,07,04,02,25,9.90
2011,07,04,02,26,9.90
2011,07,04,02,27,9.90
2011,07,04,02,28,9.90
2011,07,04,02,29,9.90
2011,07,04,02,30,9.90
2011,07,04,02,31,9.90
2011,07,04,02,32,9.90
2011,07,04,02,33,9.90
2011,07,04,02,34,9.90
2011,07,04,02,35,9.90
2011,07,04,02,36,9.90
2011,07,04,02,37,9.90
2011,07,04,02,38,9.90
2011,07,04,02,39,9.90
2011,07,04,02,40,9.90
2011,07,04,02,41,9.90
2011,07,04,02,42,9.90
2011,07,04,02,43,9.90
2011,07,04,02,44,9.80
2011,07,04,02,45,9.80
2011,07,04,02,46,9.80
2011,07,04,02,47,9.80
2011,07,04,02,48,9.80
2011,07,04,02,49,9.80
2011,07,04,02,50,9.80
2011,07,04,02,51,9.80
2011,07,04,02,52,9.80
2011,07,04,02,53,9.80
2011,07,04,02,54,9.70
2011,07,04,02,55,9.70
2011,07,04,02,56,9.70
2011,07,04,02,57,9.70
2011,07,04,02,58,9.70
2011,07,04,02,59,9.70
2011,07,04,03,00,9.70
2011,07,04,03,01,9.70
2011,07,04,03,02,9.70
2011,07,04,03,03,9.70
2011,07,04,03,04,9.70
2011,07,04,03,05,9.70
2011,07,04,03,06,9.60
2011,07,04,03,07,9.60
2011,07,04,03,08,9.60
2011,07,04,03,09,9.60
2011,07,04,03,10,9.60
2011,07,04,03,11,9.60
2011,07,04,03,12,9.60
2011,07,04,03,13,9.50
2011,07,04,03,14,9.50
2011,07,04,03,15,9.50
2011,07,04,03,16,9.40
2011,07,04,03,17,9.40
2011,07,04,03,18,9.40
2011,07,04,03,19,9.40
2011,07,04,03,20,9.30
2011,07,04,03,21,9.30
2011,07,04,03,22,9.30
2011,07,04,03,23,9.30
2011,07,04,03,24,9.30
2011,07,04,03,25,9.30
2011,07,04,03,26,9.30
2011,07,04,03,27,9.30
2011,07,04,03,28,9.30
2011,07,04,03,29,9.30
2011,07,04,03,30,9.30
2011,07,04,03,31,9.30
2011,07,04,03,32,9.30
2011,07,04,03,33,9.30
2011,07,04,03,34,9.30
2011,07,04,03,35,9.30
2011,07,04,03,36,9.30
2011,07,04,03,37,9.30
2011,07,04,03,38,9.20
2011,07,04,03,39,9.20
2011,07,04,03,40,9.20
2011,07,04,03,41,9.20
2011,07,04,03,42,9.20
2011,07,04,03,43,9.20
2011,07,04,03,44,9.20
2011,07,04,03,45,9.20
2011,07,04,03,46,9.20
2011,07,04,03,47,9.20
2011,07,04,03,48,9.10
2011,07,04,03,49,9.10
2011,07,04,03,50,9.00
2011,07,04,03,51,9.00
2011,07,04,03,52,9.00
2011,07,04,03,53,9.00
2011,07,04,03,54,9.00
2011,07,04,03,55,8.90
2011,07,04,03,56,8.90
2011,07,04,03,57,8.90
2011,07,04,03,58,8.80
2011,07,04,03,59,8.80
2011,07,04,04,00,8.80
2011,07,04,04,01,8.80
2011,07,04,04,02,8.80
2011,07,04,04,03,8.80
2011,07,04,04,04,8.70
2011,07,04,04,05,8.70
2011,07,04,04,06,8.70
2011,07,04,04,07,8.70
2011,07,04,04,08,8.70
2011,07,04,04,09,8.70
2011,07,04,04,10,8.70
2011,07,04,04,11,8.70
2011,07,04,04,12,8.70
2011,07,04,04,13,8.70
2011,07,04,04,14,8.70
2011,07,04,04,15,8.70
2011,07,04,04,16,8.70
2011,07,04,04,17,8.70
2011,07,04,04,18,8.70
2011,07,04,04,19,8.70
2011,07,04,04,20,8.70
2011,07,04,04,21,8.70
2011,07,04,04,22,8.70
2011,07,04,04,23,8.70
2011,07,04,04,24,8.70
2011,07,04,04,25,8.70
2011,07,04,04,26,8.60
2011,07,04,04,27,8.60
2011,07,04,04,28,8.60
2011,07,04,04,29,8.50
2011,07,04,04,30,8.50
2011,07,04,04,31,8.50
2011,07,04,04,32,8.50
2011,07,04,04,33,8.50
2011,07,04,04,34,8.50
2011,07,04,04,35,8.50
2011,07,04,04,36,8.50
2011,07,04,04,37,8.50
2011,07,04,04,38,8.50
2011,07,04,04,39,8.50
2011,07,04,04,40,8.50
2011,07,04,04,41,8.50
2011,07,04,04,42,8.50
2011,07,04,04,43,8.40
2011,07,04,04,44,8.40
2011,07,04,04,45,8.40
2011,07,04,04,46,8.40
2011,07,04,04,47,8.40
2011,07,04,04,48,8.40
2011,07,04,04,49,8.40
2011,07,04,04,50,8.40
2011,07,04,04,51,8.40
2011,07,04,04,52,8.40
2011,07,04,04,53,8.40
2011,07,04,04,54,8.40
2011,07,04,04,55,8.40
2011,07,04,04,56,8.40
2011,07,04,04,57,8.40
2011,07,04,04,58,8.40
2011,07,04,04,59,8.40
2011,07,04,05,00,8.40
2011,07,04,05,01,8.40
2011,07,04,05,02,8.30
2011,07,04,05,03,8.30
2011,07,04,05,04,8.30
2011,07,04,05,05,8.30
2011,07,04,05,06,8.30
2011,07,04,05,07,8.30
2011,07,04,05,08,8.30
2011,07,04,05,09,8.30
2011,07,04,05,10,8.30
2011,07,04,05,11,8.30
2011,07,04,05,12,8.30
2011,07,04,05,13,8.30
2011,07,04,05,14,8.30
2011,07,04,05,15,8.30
2011,07,04,05,16,8.30
2011,07,04,05,17,8.30
2011,07,04,05,18,8.30
2011,07,04,05,19,8.30
2011,07,04,05,20,8.30
2011,07,04,05,21,8.30
2011,07,04,05,22,8.30
2011,07,04,05,23,8.30
2011,07,04,05,24,8.30
2011,07,04,05,25,8.30
2011,07,04,05,26,8.40
2011,07,04,05,27,8.40
2011,07,04,05,28,8.40
2011,07,04,05,29,8.40
2011,07,04,05,30,8.50
2011,07,04,05,31,8.50
2011,07,04,05,32,8.50
2011,07,04,05,33,8.50
2011,07,04,05,34,8.50
2011,07,04,05,35,8.50
2011,07,04,05,36,8.50
2011,07,04,05,37,8.40
2011,07,04,05,38,8.40
2011,07,04,05,39,8.40
2011,07,04,05,40,8.40
2011,07,04,05,41,8.40
2011,07,04,05,42,8.40
2011,07,04,05,43,8.40
2011,07,04,05,44,8.40
2011,07,04,05,45,8.40
2011,07,04,05,46,8.40
2011,07,04,05,47,8.50
2011,07,04,05,48,8.50
2011,07,04,05,49,8.50
2011,07,04,05,50,8.50
2011,07,04,05,51,8.50
2011,07,04,05,52,8.50
2011,07,04,05,53,8.60
2011,07,04,05,54,8.60
2011,07,04,05,55,8.60
2011,07,04,05,56,8.70
2011,07,04,05,57,8.70
2011,07,04,05,58,8.70
2011,07,04,05,59,8.70
2011,07,04,06,00,8.80
2011,07,04,06,01,8.80
2011,07,04,06,02,8.90
2011,07,04,06,03,8.90
2011,07,04,06,04,8.90
2011,07,04,06,05,9.00
2011,07,04,06,06,9.00
2011,07,04,06,07,9.00
2011,07,04,06,08,9.10
2011,07,04,06,09,9.10
2011,07,04,06,10,9.20
2011,07,04,06,11,9.20
2011,07,04,06,12,9.20
2011,07,04,06,13,9.30
2011,07,04,06,14,9.30
2011,07,04,06,15,9.40
2011,07,04,06,16,9.40
2011,07,04,06,17,9.40
2011,07,04,06,18,9.40
2011,07,04,06,19,9.50
2011,07,04,06,20,9.50
2011,07,04,06,21,9.50
2011,07,04,06,22,9.60
2011,07,04,06,23,9.60
2011,07,04,06,24,9.70
2011,07,04,06,25,9.70
2011,07,04,06,26,9.80
2011,07,04,06,27,9.80
2011,07,04,06,28,9.90
2011,07,04,06,29,10.00
2011,07,04,06,30,10.10
2011,07,04,06,31,10.20
2011,07,04,06,32,10.20
2011,07,04,06,33,10.30
2011,07,04,06,34,10.30
2011,07,04,06,35,10.40
2011,07,04,06,36,10.60
2011,07,04,06,37,10.70
2011,07,04,06,38,10.80
2011,07,04,06,39,10.90
2011,07,04,06,40,11.00
2011,07,04,06,41,11.10
2011,07,04,06,42,11.20
2011,07,04,06,43,11.30
2011,07,04,06,44,11.40
2011,07,04,06,45,11.40
2011,07,04,06,46,11.50
2011,07,04,06,47,11.60
2011,07,04,06,48,11.60
2011,07,04,06,49,11.70
2011,07,04,06,50,11.80
2011,07,04,06,51,11.80
2011,07,04,06,52,11.80
2011,07,04,06,53,11.90
2011,07,04,06,54,11.90
2011,07,04,06,55,12.00
2011,07,04,06,56,12.00
2011,07,04,06,57,12.00
2011,07,04,06,58,12.00
2011,07,04,06,59,12.00
2011,07,04,07,00,12.00
2011,07,04,07,01,12.10
2011,07,04,07,02,12.10
2011,07,04,07,03,12.10
2011,07,04,07,04,12.20
2011,07,04,07,05,12.20
2011,07,04,07,06,12.30
2011,07,04,07,07,12.40
2011,07,04,07,08,12.40
2011,07,04,07,09,12.50
2011,07,04,07,10,12.50
2011,07,04,07,11,12.60
2011,07,04,07,12,12.70
2011,07,04,07,13,12.80
2011,07,04,07,14,12.80
2011,07,04,07,15,12.90
2011,07,04,07,16,13.00
2011,07,04,07,17,13.10
2011,07,04,07,18,13.20
2011,07,04,07,19,13.30
2011,07,04,07,20,13.40
2011,07,04,07,21,13.50
2011,07,04,07,22,13.60
2011,07,04,07,23,13.60
2011,07,04,07,24,13.70
2011,07,04,07,25,13.70
2011,07,04,07,26,13.80
2011,07,04,07,27,13.90
2011,07,04,07,28,14.00
2011,07,04,07,29,14.20
2011,07,04,07,30,14.20
2011,07,04,07,31,14.20
2011,07,04,07,32,14.40
2011,07,04,07,33,14.50
2011,07,04,07,34,14.50
2011,07,04,07,35,14.50
2011,07,04,07,36,14.60
2011,07,04,07,37,14.60
2011,07,04,07,38,14.70
2011,07,04,07,39,14.70
2011,07,04,07,40,14.80
2011,07,04,07,41,14.80
2011,07,04,07,42,14.80
2011,07,04,07,43,14.80
2011,07,04,07,44,14.70
2011,07,04,07,45,14.70
2011,07,04,07,46,14.60
2011,07,04,07,47,14.50
2011,07,04,07,48,14.50
2011,07,04,07,49,14.50
2011,07,04,07,50,14.50
2011,07,04,07,51,14.50
2011,07,04,07,52,14.60
2011,07,04,07,53,14.60
2011,07,04,07,54,14.70
2011,07,04,07,55,14.80
2011,07,04,07,56,15.00
2011,07,04,07,57,15.10
2011,07,04,07,58,15.20
2011,07,04,07,59,15.30
2011,07,04,08,00,15.40
2011,07,04,08,01,15.50
2011,07,04,08,02,15.60
2011,07,04,08,03,15.70
2011,07,04,08,04,15.70
2011,07,04,08,05,15.80
2011,07,04,08,06,15.80
2011,07,04,08,07,15.80
2011,07,04,08,08,15.90
2011,07,04,08,09,16.00
2011,07,04,08,10,16.10
2011,07,04,08,11,16.20
2011,07,04,08,12,16.20
2011,07,04,08,13,16.10
2011,07,04,08,14,16.10
2011,07,04,08,15,16.20
2011,07,04,08,16,16.20
2011,07,04,08,17,16.30
2011,07,04,08,18,16.30
2011,07,04,08,19,16.10
2011,07,04,08,20,15.90
2011,07,04,08,21,15.70
2011,07,04,08,22,15.50
2011,07,04,08,23,15.40
2011,07,04,08,24,15.30
2011,07,04,08,25,15.30
2011,07,04,08,26,15.30
2011,07,04,08,27,15.40
2011,07,04,08,28,15.50
2011,07,04,08,29,15.50
2011,07,04,08,30,15.40
2011,07,04,08,31,15.30
2011,07,04,08,32,15.30
2011,07,04,08,33,15.30
2011,07,04,08,34,15.40
2011,07,04,08,35,15.50
2011,07,04,08,36,15.60
2011,07,04,08,37,15.80
2011,07,04,08,38,15.90
2011,07,04,08,39,16.10
2011,07,04,08,40,16.20
2011,07,04,08,41,16.30
2011,07,04,08,42,16.40
2011,07,04,08,43,16.40
2011,07,04,08,44,16.40
2011,07,04,08,45,16.40
2011,07,04,08,46,16.40
2011,07,04,08,47,16.40
2011,07,04,08,48,16.40
2011,07,04,08,49,16.40
2011,07,04,08,50,16.40
2011,07,04,08,51,16.30
2011,07,04,08,52,16.10
2011,07,04,08,53,16.10
2011,07,04,08,54,16.10
2011,07,04,08,55,16.10
2011,07,04,08,56,16.10
2011,07,04,08,57,16.00
2011,07,04,08,58,15.90
2011,07,04,08,59,16.00
2011,07,04,09,00,16.10
2011,07,04,09,01,16.10
2011,07,04,09,02,16.20
2011,07,04,09,03,16.30
2011,07,04,09,04,16.30
2011,07,04,09,05,16.30
2011,07,04,09,06,16.40
2011,07,04,09,07,16.50
2011,07,04,09,08,16.60
2011,07,04,09,09,16.80
2011,07,04,09,10,16.90
2011,07,04,09,11,16.90
2011,07,04,09,12,17.00
2011,07,04,09,13,17.10
2011,07,04,09,14,17.10
2011,07,04,09,15,17.20
2011,07,04,09,16,17.20
2011,07,04,09,17,17.30
2011,07,04,09,18,17.30
2011,07,04,09,19,17.30
2011,07,04,09,20,17.30
2011,07,04,09,21,17.30
2011,07,04,09,22,17.20
2011,07,04,09,23,17.10
2011,07,04,09,24,17.00
2011,07,04,09,25,17.00
2011,07,04,09,26,16.90
2011,07,04,09,27,16.90
2011,07,04,09,28,16.90
2011,07,04,09,29,16.90
2011,07,04,09,30,16.90
2011,07,04,09,31,17.00
2011,07,04,09,32,17.10
2011,07,04,09,33,17.20
2011,07,04,09,34,17.30
2011,07,04,09,35,17.40
2011,07,04,09,36,17.40
2011,07,04,09,37,17.50
2011,07,04,09,38,17.40
2011,07,04,09,39,17.30
2011,07,04,09,40,17.20
2011,07,04,09,41,17.00
2011,07,04,09,42,16.90
2011,07,04,09,43,16.70
2011,07,04,09,44,16.60
2011,07,04,09,45,16.60
2011,07,04,09,46,16.60
2011,07,04,09,47,16.60
2011,07,04,09,48,16.70
2011,07,04,09,49,16.70
2011,07,04,09,50,16.80
2011,07,04,09,51,16.90
2011,07,04,09,52,17.00
2011,07,04,09,53,17.10
2011,07,04,09,54,17.20
2011,07,04,09,55,17.30
2011,07,04,09,56,17.50
2011,07,04,09,57,17.60
2011,07,04,09,58,17.70
2011,07,04,09,59,17.70
2011,07,04,10,00,17.50
2011,07,04,10,01,17.40
2011,07,04,10,02,17.20
2011,07,04,10,03,17.00
2011,07,04,10,04,16.90
2011,07,04,10,05,16.80
2011,07,04,10,06,16.80
2011,07,04,10,07,16.80
2011,07,04,10,08,16.80
2011,07,04,10,09,16.80
2011,07,04,10,10,16.90
2011,07,04,10,11,16.80
2011,07,04,10,12,16.70
2011,07,04,10,13,16.70
2011,07,04,10,14,16.60
2011,07,04,10,15,16.50
2011,07,04,10,16,16.40
2011,07,04,10,17,16.50
2011,07,04,10,18,16.60
2011,07,04,10,19,16.60
2011,07,04,10,20,16.70
2011,07,04,10,21,16.80
2011,07,04,10,22,16.90
2011,07,04,10,23,17.00
2011,07,04,10,24,17.10
2011,07,04,10,25,17.30
2011,07,04,10,26,17.30
2011,07,04,10,27,17.40
2011,07,04,10,28,17.40
2011,07,04,10,29,17.40
2011,07,04,10,30,17.40
2011,07,04,10,31,17.30
2011,07,04,10,32,17.30
2011,07,04,10,33,17.40
2011,07,04,10,34,17.40
2011,07,04,10,35,17.50
2011,07,04,10,36,17.60
2011,07,04,10,37,17.70
2011,07,04,10,38,17.70
2011,07,04,10,39,17.70
2011,07,04,10,40,17.70
2011,07,04,10,41,17.80
2011,07,04,10,42,17.80
2011,07,04,10,43,17.90
2011,07,04,10,44,17.90
2011,07,04,10,45,18.00
2011,07,04,10,46,18.00
2011,07,04,10,47,17.90
2011,07,04,10,48,17.90
2011,07,04,10,49,17.90
2011,07,04,10,50,17.90
2011,07,04,10,51,18.00
2011,07,04,10,52,18.10
2011,07,04,10,53,18.20
2011,07,04,10,54,18.20
2011,07,04,10,55,18.20
2011,07,04,10,56,18.30
2011,07,04,10,57,18.40
2011,07,04,10,58,18.50
2011,07,04,10,59,18.50
2011,07,04,11,00,18.50
2011,07,04,11,01,18.50
2011,07,04,11,02,18.50
2011,07,04,11,03,18.50
2011,07,04,11,04,18.60
2011,07,04,11,05,18.60
2011,07,04,11,06,18.50
2011,07,04,11,07,18.30
2011,07,04,11,08,18.20
2011,07,04,11,09,18.20
2011,07,04,11,10,18.20
2011,07,04,11,11,18.20
2011,07,04,11,12,18.20
2011,07,04,11,13,18.30
2011,07,04,11,14,18.30
2011,07,04,11,15,18.30
2011,07,04,11,16,18.40
2011,07,04,11,17,18.40
2011,07,04,11,18,18.40
2011,07,04,11,19,18.30
2011,07,04,11,20,18.20
2011,07,04,11,21,18.20
2011,07,04,11,22,18.20
2011,07,04,11,23,18.20
2011,07,04,11,24,18.20
2011,07,04,11,25,18.20
2011,07,04,11,26,18.20
2011,07,04,11,27,18.20
2011,07,04,11,28,18.20
2011,07,04,11,29,18.20
2011,07,04,11,30,18.20
2011,07,04,11,31,18.20
2011,07,04,11,32,18.20
2011,07,04,11,33,18.20
2011,07,04,11,34,18.20
2011,07,04,11,35,18.20
2011,07,04,11,36,18.30
2011,07,04,11,37,18.40
2011,07,04,11,38,18.50
2011,07,04,11,39,18.50
2011,07,04,11,40,18.60
2011,07,04,11,41,18.70
2011,07,04,11,42,18.70
2011,07,04,11,43,18.70
2011,07,04,11,44,18.70
2011,07,04,11,45,18.80
2011,07,04,11,46,18.90
2011,07,04,11,47,18.90
2011,07,04,11,48,18.80
2011,07,04,11,49,18.70
2011,07,04,11,50,18.70
2011,07,04,11,51,18.80
2011,07,04,11,52,18.70
2011,07,04,11,53,18.60
2011,07,04,11,54,18.50
2011,07,04,11,55,18.50
2011,07,04,11,56,18.40
2011,07,04,11,57,18.00
2011,07,04,11,58,17.80
2011,07,04,11,59,17.70
2011,07,04,12,00,17.70
2011,07,04,12,01,17.70
2011,07,04,12,02,17.80
2011,07,04,12,03,17.90
2011,07,04,12,04,17.80
2011,07,04,12,05,17.80
2011,07,04,12,06,17.60
2011,07,04,12,07,17.50
2011,07,04,12,08,17.40
2011,07,04,12,09,17.50
2011,07,04,12,10,17.60
2011,07,04,12,11,17.70
2011,07,04,12,12,17.90
2011,07,04,12,13,18.00
2011,07,04,12,14,18.20
2011,07,04,12,15,18.20
2011,07,04,12,16,18.30
2011,07,04,12,17,18.40
2011,07,04,12,18,18.50
2011,07,04,12,19,18.50
2011,07,04,12,20,18.40
2011,07,04,12,21,18.40
2011,07,04,12,22,18.40
2011,07,04,12,23,18.40
2011,07,04,12,24,18.50
2011,07,04,12,25,18.50
2011,07,04,12,26,18.60
2011,07,04,12,27,18.70
2011,07,04,12,28,18.80
2011,07,04,12,29,18.90
2011,07,04,12,30,18.90
2011,07,04,12,31,19.10
2011,07,04,12,32,19.10
2011,07,04,12,33,19.20
2011,07,04,12,34,19.30
2011,07,04,12,35,19.30
2011,07,04,12,36,19.30
2011,07,04,12,37,19.30
2011,07,04,12,38,19.10
2011,07,04,12,39,19.00
2011,07,04,12,40,18.80
2011,07,04,12,41,18.70
2011,07,04,12,42,18.70
2011,07,04,12,43,18.80
2011,07,04,12,44,18.90
2011,07,04,12,45,18.90
2011,07,04,12,46,18.90
2011,07,04,12,47,18.90
2011,07,04,12,48,18.90
2011,07,04,12,49,18.90
2011,07,04,12,50,18.90
2011,07,04,12,51,18.80
2011,07,04,12,52,18.60
2011,07,04,12,53,18.60
2011,07,04,12,54,18.70
2011,07,04,12,55,18.80
2011,07,04,12,56,18.90
2011,07,04,12,57,19.00
2011,07,04,12,58,19.10
2011,07,04,12,59,19.10
2011,07,04,13,00,19.20
2011,07,04,13,01,19.30
2011,07,04,13,02,19.40
2011,07,04,13,03,19.60
2011,07,04,13,04,19.70
2011,07,04,13,05,19.90
2011,07,04,13,06,19.90
2011,07,04,13,07,20.00
2011,07,04,13,08,20.10
2011,07,04,13,09,20.10
2011,07,04,13,10,20.00
2011,07,04,13,11,19.90
2011,07,04,13,12,19.90
2011,07,04,13,13,19.80
2011,07,04,13,14,19.60
2011,07,04,13,15,19.50
2011,07,04,13,16,19.30
2011,07,04,13,17,19.10
2011,07,04,13,18,19.00
2011,07,04,13,19,18.80
2011,07,04,13,20,18.70
2011,07,04,13,21,18.70
2011,07,04,13,22,18.80
2011,07,04,13,23,18.90
2011,07,04,13,24,18.90
2011,07,04,13,25,19.00
2011,07,04,13,26,19.10
2011,07,04,13,27,19.20
2011,07,04,13,28,19.30
2011,07,04,13,29,19.30
2011,07,04,13,30,19.40
2011,07,04,13,31,19.50
2011,07,04,13,32,19.60
2011,07,04,13,33,19.50
2011,07,04,13,34,19.40
2011,07,04,13,35,19.30
2011,07,04,13,36,19.20
2011,07,04,13,37,19.00
2011,07,04,13,38,18.90
2011,07,04,13,39,18.70
2011,07,04,13,40,18.50
2011,07,04,13,41,18.40
2011,07,04,13,42,18.20
2011,07,04,13,43,18.10
2011,07,04,13,44,18.10
2011,07,04,13,45,18.20
2011,07,04,13,46,18.20
2011,07,04,13,47,18.20
2011,07,04,13,48,18.30
2011,07,04,13,49,18.40
2011,07,04,13,50,18.50
2011,07,04,13,51,18.60
2011,07,04,13,52,18.70
2011,07,04,13,53,18.70
2011,07,04,13,54,18.80
2011,07,04,13,55,18.90
2011,07,04,13,56,18.90
2011,07,04,13,57,18.90
2011,07,04,13,58,18.70
2011,07,04,13,59,18.60
2011,07,04,14,00,18.70
2011,07,04,14,01,18.60
2011,07,04,14,02,18.70
2011,07,04,14,03,18.70
2011,07,04,14,04,18.80
2011,07,04,14,05,18.90
2011,07,04,14,06,18.90
2011,07,04,14,07,19.00
2011,07,04,14,08,19.10
2011,07,04,14,09,18.90
2011,07,04,14,10,18.90
2011,07,04,14,11,18.90
2011,07,04,14,12,18.90
2011,07,04,14,13,18.90
2011,07,04,14,14,19.00
2011,07,04,14,15,19.00
2011,07,04,14,16,19.00
2011,07,04,14,17,19.10
2011,07,04,14,18,19.00
2011,07,04,14,19,18.90
2011,07,04,14,20,18.90
2011,07,04,14,21,18.90
2011,07,04,14,22,19.00
2011,07,04,14,23,19.00
2011,07,04,14,24,18.90
2011,07,04,14,25,18.90
2011,07,04,14,26,18.90
2011,07,04,14,27,18.90
2011,07,04,14,28,18.70
2011,07,04,14,29,18.60
2011,07,04,14,30,18.70
2011,07,04,14,31,18.70
2011,07,04,14,32,18.80
2011,07,04,14,33,18.80
2011,07,04,14,34,18.80
2011,07,04,14,35,18.80
2011,07,04,14,36,18.90
2011,07,04,14,37,19.00
2011,07,04,14,38,19.10
2011,07,04,14,39,19.10
2011,07,04,14,40,19.10
2011,07,04,14,41,19.10
2011,07,04,14,42,19.00
2011,07,04,14,43,18.90
2011,07,04,14,44,19.00
2011,07,04,14,45,19.10
2011,07,04,14,46,19.30
2011,07,04,14,47,19.40
2011,07,04,14,48,19.50
2011,07,04,14,49,19.70
2011,07,04,14,50,19.80
2011,07,04,14,51,19.90
2011,07,04,14,52,19.90
2011,07,04,14,53,20.00
2011,07,04,14,54,20.10
2011,07,04,14,55,20.10
2011,07,04,14,56,20.20
2011,07,04,14,57,20.20
2011,07,04,14,58,20.20
2011,07,04,14,59,20.20
2011,07,04,15,00,20.20
2011,07,04,15,01,20.20
2011,07,04,15,02,20.20
2011,07,04,15,03,20.20
2011,07,04,15,04,20.30
2011,07,04,15,05,20.30
2011,07,04,15,06,20.30
2011,07,04,15,07,20.20
2011,07,04,15,08,20.20
2011,07,04,15,09,20.20
2011,07,04,15,10,20.20
2011,07,04,15,11,20.20
2011,07,04,15,12,20.20
2011,07,04,15,13,20.30
2011,07,04,15,14,20.30
2011,07,04,15,15,20.30
2011,07,04,15,16,20.30
2011,07,04,15,17,20.20
2011,07,04,15,18,20.10
2011,07,04,15,19,19.90
2011,07,04,15,20,19.70
2011,07,04,15,21,19.70
2011,07,04,15,22,19.70
2011,07,04,15,23,19.70
2011,07,04,15,24,19.80
2011,07,04,15,25,19.80
2011,07,04,15,26,19.80
2011,07,04,15,27,19.80
2011,07,04,15,28,19.80
2011,07,04,15,29,19.80
2011,07,04,15,30,19.80
2011,07,04,15,31,19.80
2011,07,04,15,32,19.70
2011,07,04,15,33,19.70
2011,07,04,15,34,19.70
2011,07,04,15,35,19.70
2011,07,04,15,36,19.70
2011,07,04,15,37,19.70
2011,07,04,15,38,19.60
2011,07,04,15,39,19.60
2011,07,04,15,40,19.60
2011,07,04,15,41,19.50
2011,07,04,15,42,19.60
2011,07,04,15,43,19.60
2011,07,04,15,44,19.60
2011,07,04,15,45,19.60
2011,07,04,15,46,19.70
2011,07,04,15,47,19.70
2011,07,04,15,48,19.80
2011,07,04,15,49,19.80
2011,07,04,15,50,19.80
2011,07,04,15,51,19.90
2011,07,04,15,52,19.80
2011,07,04,15,53,19.80
2011,07,04,15,54,19.80
2011,07,04,15,55,19.80
2011,07,04,15,56,19.80
2011,07,04,15,57,19.80
2011,07,04,15,58,19.80
2011,07,04,15,59,19.80
2011,07,04,16,00,19.80
2011,07,04,16,01,19.70
2011,07,04,16,02,19.60
2011,07,04,16,03,19.50
2011,07,04,16,04,19.40
2011,07,04,16,05,19.40
2011,07,04,16,06,19.40
2011,07,04,16,07,19.40
2011,07,04,16,08,19.50
2011,07,04,16,09,19.60
2011,07,04,16,10,19.70
2011,07,04,16,11,19.80
2011,07,04,16,12,19.90
2011,07,04,16,13,20.10
2011,07,04,16,14,20.20
2011,07,04,16,15,20.20
2011,07,04,16,16,20.20
2011,07,04,16,17,20.20
2011,07,04,16,18,20.20
2011,07,04,16,19,20.20
2011,07,04,16,20,20.20
2011,07,04,16,21,20.20
2011,07,04,16,22,20.20
2011,07,04,16,23,20.10
2011,07,04,16,24,20.00
2011,07,04,16,25,19.90
2011,07,04,16,26,19.90
2011,07,04,16,27,20.00
2011,07,04,16,28,20.10
2011,07,04,16,29,20.00
2011,07,04,16,30,19.90
2011,07,04,16,31,19.90
2011,07,04,16,32,19.90
2011,07,04,16,33,19.90
2011,07,04,16,34,19.70
2011,07,04,16,35,19.70
2011,07,04,16,36,19.60
2011,07,04,16,37,19.60
2011,07,04,16,38,19.50
2011,07,04,16,39,19.40
2011,07,04,16,40,19.40
2011,07,04,16,41,19.40
2011,07,04,16,42,19.40
2011,07,04,16,43,19.50
2011,07,04,16,44,19.50
2011,07,04,16,45,19.50
2011,07,04,16,46,19.50
2011,07,04,16,47,19.60
2011,07,04,16,48,19.60
2011,07,04,16,49,19.60
2011,07,04,16,50,19.60
2011,07,04,16,51,19.50
2011,07,04,16,52,19.40
2011,07,04,16,53,19.40
2011,07,04,16,54,19.40
2011,07,04,16,55,19.40
2011,07,04,16,56,19.50
2011,07,04,16,57,19.50
2011,07,04,16,58,19.40
2011,07,04,16,59,19.50
2011,07,04,17,00,19.60
2011,07,04,17,01,19.60
2011,07,04,17,02,19.70
2011,07,04,17,03,19.80
2011,07,04,17,04,19.90
2011,07,04,17,05,19.80
2011,07,04,17,06,19.80
2011,07,04,17,07,19.80
2011,07,04,17,08,19.80
2011,07,04,17,09,19.80
2011,07,04,17,10,19.80
2011,07,04,17,11,19.60
2011,07,04,17,12,19.50
2011,07,04,17,13,19.50
2011,07,04,17,14,19.40
2011,07,04,17,15,19.50
2011,07,04,17,16,19.40
2011,07,04,17,17,19.20
2011,07,04,17,18,19.20
2011,07,04,17,19,19.10
2011,07,04,17,20,19.10
2011,07,04,17,21,19.10
2011,07,04,17,22,19.10
2011,07,04,17,23,19.00
2011,07,04,17,24,18.90
2011,07,04,17,25,19.10
2011,07,04,17,26,19.10
2011,07,04,17,27,19.10
2011,07,04,17,28,19.10
2011,07,04,17,29,19.10
2011,07,04,17,30,19.30